Location: Jaworzyna Śląska
(50.9128°N, 16.4318°E)
Time: 07:32:15
(UTC+02:00)

ISS - Visible Passes

Search period start: 20 September 2018 00:00
Search period end: 30 September 2018 00:00
Orbit: 402 x 408 km, 51.6° (Epoch: 20 September)

Date Brightness Start Highest point End Pass type
(mag) Time Alt. Az. Time Alt. Az. Time Alt. Az.
22 Sep -1.8 20:27:20 10° SSW 20:28:33 16° S 20:28:33 16° S visible
23 Sep -1.7 19:36:32 10° SSE 19:38:02 13° SE 19:39:12 11° ESE visible
23 Sep -1.7 21:10:45 10° SW 21:11:54 19° SW 21:11:54 19° SW visible
24 Sep -3.1 20:19:00 10° SW 20:22:02 34° SSE 20:22:20 33° SE visible
25 Sep -2.4 19:27:29 10° SSW 19:30:09 23° SE 19:32:36 11° E visible
25 Sep -2.7 21:03:02 10° WSW 21:05:17 40° WSW 21:05:17 40° WSW visible
26 Sep -3.7 20:11:04 10° WSW 20:14:19 57° SSE 20:15:25 35° E visible
26 Sep -0.8 21:47:30 10° W 21:48:06 15° W 21:48:06 15° W visible
27 Sep -3.1 19:19:14 10° SW 19:22:20 40° SSE 19:25:28 10° E visible
27 Sep -3.3 20:55:25 10° W 20:58:09 58° W 20:58:09 58° W visible
28 Sep -3.9 20:03:20 10° WSW 20:06:38 84° SSE 20:08:07 30° E visible
28 Sep -1.0 21:39:54 10° W 21:40:47 17° W 21:40:47 17° W visible
29 Sep -3.7 19:11:18 10° WSW 19:14:35 65° SSE 19:17:51 10° ENE visible
29 Sep -3.4 20:47:47 10° W 20:50:42 64° WNW 20:50:42 64° WNW visible
